This demonstration page uses our WeatherBlox Daily Observations layout. Learn more.

Left ArrowRight Arrow

44.8408, -93.29828

Hourly Observations for July 27, 2016

Temp ( °F °C ) Dew Point ( °F °C ) Humidity (%) Winds ( mph kmh ) Pressure ( in mb ) Visibility ( mi km ) Precip ( " mm )
12:53 am 00:53 Cloudy 81 27 68 20 66 66 SW 6 9 29.91 1013 10 16 0.00 0.00
1:53 am 01:53 Cloudy 79 26.1 68 20 69 69 SW 5 7 29.95 1014 10 16 0.00 0.00
2:53 am 02:53 Cloudy 79 26.1 68 20 69 69 WSW 8 13 29.94 1014 10 16 0.00 0.00
3:53 am 03:53 Cloudy 78 25.6 68 20 71 71 SW 7 11 29.95 1014 10 16 0.00 0.00
4:53 am 04:53 Cloudy 77 25 68 20 74 74 SW 7 11 29.94 1014 10 16 0.00 0.00
5:53 am 05:53 Mostly Cloudy 77 25 68 20 74 74 SW 6 9 29.93 1014 10 16 0.00 0.00
6:53 am 06:53 Cloudy 76 24.4 68 20 77 77 SSW 6 9 29.94 1014 10 16 0.00 0.00
7:53 am 07:53 Cloudy 76 24.4 67 19.4 74 74 SSW 6 9 29.96 1015 10 16 0.00 0.00
8:53 am 08:53 Cloudy 76 24.4 68 20 77 77 Calm 29.96 1015 10 16 0.00 0.03
9:53 am 09:53 Cloudy 78 25.6 68 20 71 71 SSE 6 9 29.94 1014 10 16 0.00 0.03
10:53 am 10:53 Cloudy 79 26.1 68 20 69 69 SE 5 7 29.93 1014 10 16 0.00 0.00
11:53 am 11:53 Cloudy 80 26.7 68 20 67 67 SE 6 9 29.93 1014 10 16 0.00 0.00
12:44 pm 12:44 Cloudy with Thunderstorms 79 26 68 20 70 70 S 6 9 29.91 1013 7 11 0.00 0.00
12:53 pm 12:53 Cloudy with Thunderstorms 78 25.6 69 20.6 74 74 SE 7 11 29.94 1014 10 16 0.01 0.25
1:03 pm 13:03 Cloudy with Light Rain 77 25 70 21 79 79 S 8 13 29.91 1013 5 8 0.00 0.00
1:33 pm 13:33 Cloudy with Nearby Thunderstorms 78 25.6 69 20.6 74 74 S 10 17 29.91 1013 9 14 0.02 0.51
1:43 pm 13:43 Cloudy with Nearby Thunderstorms 75 23.9 68 20 79 79 S 21 33 29.91 1013 1 1 0.05 1.27
1:49 pm 13:49 Cloudy with Strong Thunderstorms 72 22 63 17 73 73 Calm 29.94 1014 3 5 0.29 7.37
1:53 pm 13:53 Cloudy with Strong Thunderstorms 71 21.7 62 16.7 73 73 VRB 5 7 29.92 1013 5 8 0.39 9.91
2:36 pm 14:36 Cloudy with Nearby Thunderstorms 73 23 66 19 78 78 E 6 9 29.88 1012 10 16 0.00 0.00
2:53 pm 14:53 Cloudy with Nearby Thunderstorms 76 24.4 68 20 77 77 Calm 29.90 1013 10 16 0.02 0.51
2:57 pm 14:57 Cloudy with Light Rain 76 24.4 69 20.6 79 79 VRB 5 7 29.88 1012 10 16 0.00 0.03
3:03 pm 15:03 Cloudy with Nearby Thunderstorms 77 25 70 21.1 79 79 SW 7 11 29.88 1012 9 14 0.00 0.03
3:53 pm 15:53 Cloudy with Nearby Thunderstorms 72 22.2 68 20 87 87 NW 12 19 29.92 1013 10 16 0.02 0.51
4:14 pm 16:14 Mostly Cloudy with Nearby Thunderstorms 72 22.2 68 20 87 87 N 16 26 29.94 1014 8 13 0.04 1.02
4:21 pm 16:21 Mostly Cloudy with Nearby Thunderstorms 72 22.2 67 19.4 84 84 N 15 24 29.94 1014 8 13 0.04 1.02
4:42 pm 16:42 Mostly Cloudy 74 23.3 68 20 82 82 N 12 19 29.88 1012 10 16 0.04 1.02
4:53 pm 16:53 Mostly Cloudy 75 23.9 68 20 79 79 N 10 17 29.92 1013 10 16 0.04 1.02
5:17 pm 17:17 Mostly Cloudy 73 22.8 66 18.9 79 79 NE 7 11 29.91 1013 10 16 0.00 0.00
5:22 pm 17:22 Mostly Cloudy 73 23 66 19 78 78 NNE 6 9 29.91 1013 10 16 0.00 0.00
5:53 pm 17:53 Mostly Cloudy 76 24.4 67 19.4 74 74 NNW 5 7 29.92 1013 10 16 0.00 0.00
6:06 pm 18:06 Mostly Cloudy 75 23.9 66 18.9 74 74 N 8 13 29.91 1013 10 16 0.00 0.00
6:31 pm 18:31 Mostly Cloudy 74 23.3 65 18.3 74 74 NNW 6 9 29.91 1013 10 16 0.00 0.00
6:53 pm 18:53 Mostly Cloudy 74 23.3 65 18.3 74 74 N 8 13 29.92 1013 10 16 0.00 0.00
7:53 pm 19:53 Mostly Cloudy 72 22.2 64 17.8 76 76 N 12 19 29.92 1013 10 16 0.00 0.00
8:53 pm 20:53 Cloudy 71 21.7 64 17.8 79 79 N 12 19 29.93 1014 10 16 0.00 0.00
9:53 pm 21:53 Cloudy 70 21.1 64 17.8 82 82 N 6 9 29.96 1015 10 16 0.00 0.00
10:38 pm 22:38 Cloudy 70 21 64 18 83 83 NNW 13 20 29.94 1014 10 16 0.00 0.00
10:53 pm 22:53 Cloudy 70 21.1 63 17.2 79 79 N 12 19 29.96 1015 10 16 0.00 0.00
11:53 pm 23:53 Cloudy 68 20 64 17.8 87 87 N 13 20 29.97 1015 10 16 0.00 0.00

Powered by AerisWeather